KSKA Airport Information

Runway Information
Runway 05 Length 13901 ft width 200 ft
Elevation 2461 ft Threshold 0 ft Heading 67
Runway 23 Length 13901 ft Width 200 ft
Elevation 2414 ft Threshold 0 ft Heading 247
Airport Frequencies
Type A/D Name SPOKANE AP Frequency 123.75 MHZ
Type ATIS Name ATIS Frequency 25.762 MHZ
Type GND Name GND Frequency 121.85 MHZ
Type OPS Name WASHINGTON Frequency 29.37 MHZ
Type PMSV Name PMSV METRO Frequency 23.48 MHZ
Type POST Name COMD POST Frequency 31.1 MHZ
Type PTD Name PTD Frequency 130 MHZ
Type TWR Name TWR Frequency 126.2 MHZ
Airport Navaids
Type TACAN Name Fairchild Frequency 111400 KHZ
Airport Weather Information & NOTAM
ADDS - METARS form results

(1134 UTC 21 April 2018)
 
METAR text: KSKA 211058Z 20011KT 10SM SCT080 10/00 A3006 RMK AO2A SLP181 T00990002 $
Conditions at: KSKA (FAIRCHILD AFB , WA, US) observed 1058 UTC 21 April 2018
Temperature: 9.9°C (50°F)
Dewpoint: 0.2°C (32°F) [RH = 51%]
Pressure (altimeter): 30.06 inches Hg (1018.0 mb)
[Sea-level pressure: 1018.1 mb]
Winds: from the SSW (200 degrees) at 13 MPH (11 knots; 5.7 m/s)
Visibility: 10 or more miles (16+ km)
Ceiling: at least 12,000 feet AGL
Clouds: scattered clouds at 8000 feet AGL
Weather:
SOME DATA ABOVE MAY BE INACCURATE!!!
"$" is an indication the sensor requires maintenance